www.pogodaiklimat.ru

Архив погоды в Омске (Омская область, Россия)

Время
(UTC), дата
18 11.08
21 11.08
00 12.08
03 12.08
06 12.08
09 12.08
12 12.08
15 12.08
18 12.08
21 12.08
00 13.08
03 13.08
06 13.08
09 13.08
12 13.08
15 13.08
18 13.08
21 13.08
00 14.08
03 14.08
06 14.08
09 14.08
12 14.08
15 14.08
21 14.08
00 15.08
03 15.08
06 15.08
09 15.08
12 15.08
15 15.08
18 15.08
21 15.08
00 16.08
03 16.08
06 16.08
09 16.08
12 16.08
15 16.08
18 16.08
21 16.08
00 17.08
03 17.08
06 17.08
09 17.08
12 17.08
15 17.08
18 17.08
21 17.08
00 18.08
03 18.08
06 18.08
09 18.08
12 18.08
Ветер
(напр.,м/с)
Видим. Явления Облачность Т
(С)
Тd
(С)
f
(%)
Тe
(С)
Тes
(С)
Комфортность P
(гПа)
Po
(гПа)
Тmin
(С)
Tmax
(С)
R
(мм)
R24
(мм)
S
(см)
С 2 15 км 10/10 400 м
[Cb cap]
+18.5 +16.5 88 +20 +20 тепло 1015.0 1000.7
СВ 1 14 км 10/10 400 м
[Cb cap]
+18.3 +16.4 89 +20 +20 тепло 1014.5 1000.2
СЗ 1 12 км 10/10 420 м
[Cb cap]
+18.1 +16.2 89 +19 +19 тепло 1014.4 1000.0
С 1 8000 м дымка {ливн. дождь} 10/10 420 м
[Cb cap]
+18.6 +16.1 85 +21 +21 комфорт 1014.8 1000.5 +17.9 0.0
ЮВ 1 8000 м дымка {ливн. дождь} 10/10 570 м
[Sc]
+20.3 +16.1 77 +24 +24 комфорт 1013.4 999.1
ЮЗ 1 4800 м дым 8/8 700 м
[Cu med, cong]
+21.6 +16.0 70 +25 +28 комфорт 1012.4 998.2
З 2 8000 м дым 8/8 600 м
[Cu med, cong]
+20.9 +15.5 71 +25 +25 комфорт 1011.4 997.2
штиль 0 5000 м дымка 6/0
[Ac trans]
+18.2 +16.2 88 +19 +19 по сезону 1010.7 996.4 +21.9
З 3 4000 м слаб. ливневой дождь 10/10 600 м
[Cb cap]
+17.9 +15.7 87 +18 +18 тепло 1011.0 996.7
СЗ 2 20 км {ливн. дождь} 8/0
[Ac trans Ci fib]
+14.5 +12.0 85 +14 +14 по сезону 1011.0 996.4
ЮЗ 1 20 км {ливн. дождь} 3/0
[Ci fib]
+12.1 +10.8 92 +12 +12 по сезону 1011.1 996.5
З 2 20 км ясно +16.8 +12.4 75 +17 +22 по сезону 1010.6 996.2 +12.1 0.6
З 4
{12}
20 км 8/3 1000 м
[Cu hum Ac trans]
+21.9 +11.9 53 +24 +27 комфорт 1009.0 994.9
З 5
{10}
20 км 8/4 1000 м
[Cu hum Ac trans]
+23.7 +10.7 44 +25 +27 комфорт 1007.4 993.4
З 3 20 км 9/3 600 м
[Cb cap Ac As]
+23.5 +11.3 46 +25 +26 комфорт 1006.3 992.3
ЮЗ 1 20 км в посл. час ливневой дождь 10/5 600 м
[Cb cap Ac trans Ci fib]
+18.4 +15.3 82 +20 +20 тепло 1006.2 992.0 +24.6 0.4
З 4 20 км в посл. час ливневой дождь 6/3 600 м
[Cb cap Ac trans]
+15.9 +13.9 88 +15 +15 по сезону 1007.1 992.7
З 3
{10}
20 км ясно +14.2 +11.7 85 +13 +13 по сезону 1008.1 993.6
З 3 20 км ясно +12.5 +10.7 89 +11 +11 по сезону 1009.5 994.9
СЗ 3 20 км 6/6 600 м
[Cu hum]
+14.9 +11.1 78 +14 +16 прохладно 1011.0 996.5 +12.5 8
СЗ 4 20 км 6/6 1230 м
[Cu hum]
+17.9 +9.8 59 +18 +21 прохладно 1011.6 997.3
СЗ 3
{10}
20 км 8/8 600 м
[Cu hum]
+20.5 +8.4 46 +22 +24 комфорт 1011.9 997.7
СЗ 3 20 км 6/6 600 м
[Cu hum]
+18.7 +7.9 49 +19 +20 по сезону 1012.6 998.3
СЗ 2 20 км 3/3 600 м
[Sc diur, vesp]
+15.8 +8.2 61 +16 +16 прохладно 1013.9 999.4 +20.5
СЗ 2 20 км ясно +12.4 +8.6 78 +12 +12 по сезону 1014.9 1000.2
СЗ 1 20 км ясно +10.6 +8.4 86 +10 +10 по сезону 1015.7 1000.9
СЗ 3 20 км ясно +14.0 +9.9 76 +13 +17 прохладно 1016.3 1001.7 +10.6
СЗ 3 20 км 8/8 600 м
[Cu med, cong]
+16.7 +8.2 57 +17 +18 прохладно 1016.4 1001.9
СЗ 4
{10}
20 км 4/4 600 м
[Cu hum]
+17.9 +4.5 41 +18 +22 прохладно 1016.3 1001.8
С 4
{11}
20 км 3/3 600 м
[Cu hum]
+17.5 +3.5 39 +17 +19 прохладно 1017.0 1002.5
СЗ 1 20 км 3/3 600 м
[Sc diur, vesp]
+13.7 +4.7 55 +14 +14 прохладно 1017.9 1003.2 +18.1
СЗ 2 20 км 8/0
[Ac trans]
+13.5 +5.8 60 +13 +13 по сезону 1018.1 1003.4
СЗ 1 20 км ясно +10.2 +6.3 77 +10 +10 прохладно 1018.3 1003.5
СЗ 1 20 км 3/0
[Ac trans Ci fib]
+8.4 +6.1 85 +8 +8 прохладно 1019.2 1004.2
СЗ 2 20 км 3/0
[Ci fib]
+12.8 +6.6 66 +12 +16 прохладно 1019.7 1004.9 +8.3
СЗ 3 20 км 9/9 1500 м
[Sc]
+15.3 +2.9 43 +15 +16 прохладно 1019.1 1004.5
СЗ 2 20 км 8/8 600 м
[Cu med, cong]
+16.9 +4.6 44 +17 +19 по сезону 1017.7 1003.2
СЗ 2 20 км 6/4 600 м
[Cu med, cong Ci fib]
+19.1 +5.5 41 +20 +22 по сезону 1016.1 1001.8
З 1 20 км 10/10 600 м
[Cb cap]
+15.6 +9.2 66 +16 +16 по сезону 1016.1 1001.5 +19.1
СЗ 1 20 км {ливн. дождь} 4/0
[Ac trans]
+11.9 +8.5 80 +12 +12 по сезону 1015.7 1001.0
СЗ 1 20 км 4/0
[Ac trans]
+11.4 +8.7 83 +11 +11 по сезону 1015.0 1000.3
СЗ 2 20 км ясно +10.1 +8.4 89 +9 +9 по сезону 1015.1 1000.3
СЗ 3 20 км ясно +12.4 +7.5 72 +11 +15 по сезону 1014.9 1000.2 +8.3 0.0
СЗ 4 20 км 8/8 1500 м
[Cu med, cong]
+14.3 +5.7 56 +13 +15 прохладно 1014.4 999.8
СЗ 5
{10}
20 км 8/8 1500 м
[Cu med, cong]
+13.9 +6.4 61 +12 +13 прохладно 1014.4 999.8
С 5-11
{11}
8000 м слаб. ливневой дождь 9/9 1230 м
[Cb cap]
+10.8 +7.9 82 +8 +8 очень
холодно
1015.6 1000.8
СЗ 1 20 км {ливн. дождь} 3/0
[Ac trans]
+9.5 +7.9 90 +9 +9 холодно 1016.2 1001.3 +15.7 1
СЗ 2 20 км {ливн. дождь} 3/0
[Ci fib]
+8.6 +5.7 82 +7 +7 прохладно 1016.1 1001.2
СЗ 1 20 км 6/0
[Ci fib]
+7.4 +5.2 86 +6 +6 прохладно 1015.8 1000.8
СЗ 1 20 км 10/0
[Ac trans Ci fib]
+6.7 +5.3 91 +6 +6 по сезону 1016.5 1001.5
С 3 20 км н/о +9.7 +7.8 88 +7 +9 прохладно 1017.6 1002.7 +6.7
С 5
{10}
20 км 8/4 600 м
[Cu hum Ac trans]
+12.6 +5.2 61 +11 +13 прохладно 1018.4 1003.6
СЗ 5
{10}
20 км 8/4 600 м
[Cu hum Ci fib]
+14.3 +4.6 52 +13 +16 по сезону 1018.6 1004.0
С 4
{11}
20 км 8/5 600 м
[Cu hum Ac trans Ci fib]
+13.9 +5.7 58 +13 +13 по сезону 1019.4 1004.7
Местоположение метеостанции Омск (Омская область, Россия): широта 55.02 долгота 73.38 высота над уровнем моря 122 м.
В архиве по умолчанию представлена погода в Омске за последнюю неделю. Архивные данные за месяц целиком и за предыдущие месяцы, начиная с января 2011 года, Вы можете получить, выбрав интересующий диапазон дат из раскрывающегося списка и нажав кнопку "Найти!".
*Определитесь, кто Вы:
Внимание! Время в таблицах - всемирное. Для получения местного времени необходимо прибавить поправку, которая равна 6 ч.
Смотрите также архив погоды в соседних городах и на ближайших метеорологических станциях:
Партнеры нашего сайта:      
Пояснения к столбцам:
  • Ветер - указаны скорость ветра в м/с - средняя за 10 мин, порывы в срок и между сроками (в фигурных скобках) и направление, откуда дует ветер: С - северный,
  • СВ - северо-восточный, В - восточный, ЮВ - юго-восточный, Ю - южный, ЮЗ - юго-западный, З - западный, СЗ - северо-западный.
  • Видимость - горизонтальная дальность видимости в метрах или километрах. При видимости от 1 до 10 км при отсутствии осадков обычно наблюдается дымка, при ухудшении видимости до 1 км и менее - туман. В сухую погоду видимость может ухудшаться дымом, пылью или мглою.
  • Явления - указаны атмосферные явления, наблюдавшиеся в срок или в последний час перед сроком; фигурными скобками обозначены явления, наблюдавшиеся между сроками (за 1-3 часа до срока); квадратными скобками обозначены град или гололедные отложения с указанием их диаметра в мм.
  • Облачность - указаны через наклонную черту общая и нижняя облачность в баллах и высота нижней границы облаков в метрах; квадратными скобками обозначены формы облаков: Ci - перистые, Cs - перисто-слоистые, Cc - перисто-кучевые, Ac - высококучевые, As - высокослоистые, Sc - слоисто-кучевые, Ns - слоисто-дождевые, Cu - кучевые, Cb - кучево-дождевые. Подробнее классификацию облаков см. в Атласе облаков (PDF).
  • T - Температура воздуха - температура, измеренная на высоте 2 м над землей.
  • Td - Температура точки росы - температура, при понижении до которой содержащийся в воздухе водяной пар достигнет насыщения.
  • f - Относительная влажность воздуха - влажноcть воздуха, измеренная на высоте 2 м над землей.
  • Te - Эффективная температура - температура, которую ощущает одетый по сезону человек в тени. Характеристика душности погоды. При расчете учитывается влияние влажности воздуха и скорости ветра на теплоощущения человека.
  • Tes - Эффективная температура на солнце - температура, которую ощущает человек, с поправкой на солнечный нагрев. Характеристика знойности погоды. Зависит от высоты солнца над горизонтом, облачности и скорости ветра. Ночью, в пасмурную погоду, а также при ветре 12 м/с и более поправка равна нулю.
  • P - Атмосферное давление - приведенное к уровню моря атмосферное давление.
  • Po - Атмосферное давление - измеренное на уровне метеостанции атмосферное давление.
  • Tmin - Минимальная температура - минимум температуры воздуха на высоте 2 м над землей.
  • Tmax - Максимальная температура - максимум температуры воздуха на высоте 2 м над землей.
  • R - Количество осадков - Количество выпавших осадков за период времени, мм. При наведении курсора мыши на число - период времени, за который выпало указанное количество осадков.
  • R24 - Количество осадков - Количество выпавших осадков за 24 часа, мм.
  • S - Снежный покров - Высота снежного покрова, см. При наведении курсора мыши на число - состояние снежного покрова и степень покрытия местности в баллах.